Hourly Data Report for October 06, 2017

All times are specified in Local Standard Time (LST). Add 1 hour to adjust for Daylight Saving Time where and when it is observed.

THE PAS A
MANITOBA

53°58'17.000" N
101°05'28.000" W
270.60 m
5052881
71867
YQD

Download Data

Hourly Data (October 2017)
Hourly Data Report for October 6, 2017
Temp Definition
°C
Dew Point Temp Definition
°C
Rel Hum Definition
%
Wind Dir Definition
10's deg

Wind Spd Definition
km/h
Visibility Definition
km
Stn Press Definition
kPa
Hmdx Definition


Wind Chill Definition


Weather Definition


TIME
00:00 Legend Double Dagger 8.3 2.1 65 21 14 24.1 97.60     Clear
01:00 Legend Double Dagger 8.5 2.1 64 21 16 24.1 97.56     LegendNANA
02:00 Legend Double Dagger 9.5 1.8 58 21 17 24.1 97.51     LegendNANA
03:00 Legend Double Dagger 8.9 2.0 62 19 16 24.1 97.43     Mostly Cloudy
04:00 Legend Double Dagger 8.2 1.8 64 20 17 24.1 97.32     LegendNANA
05:00 Legend Double Dagger 7.6 1.8 66 20 18 24.1 97.24     LegendNANA
06:00 Legend Double Dagger 7.6 1.8 67 21 19 24.1 97.10     Clear
07:00 Legend Double Dagger 7.2 1.8 68 21 16 24.1 97.01     LegendNANA
08:00 Legend Double Dagger 7.5 2.0 68 21 19 24.1 96.94     LegendNANA
09:00 Legend Double Dagger 9.4 2.4 61 20 17 24.1 96.87     Mainly Clear
10:00 Legend Double Dagger 13.6 1.1 42 24 22 24.1 96.78     LegendNANA
11:00 Legend Double Dagger 15.1 1.8 40 24 26 24.1 96.71     LegendNANA
12:00 Legend Double Dagger 17.6 1.8 34 23 26 24.1 96.60     Mostly Cloudy
13:00 Legend Double Dagger 18.2 3.7 38 21 18 24.1 96.53     LegendNANA
14:00 Legend Double Dagger 19.0 3.4 35 22 20 24.1 96.43     LegendNANA
15:00 Legend Double Dagger 20.2 -0.8 24 22 21 24.1 96.34     Mainly Clear
16:00 Legend Double Dagger 20.5 -1.4 23 23 19 24.1 96.22     LegendNANA
17:00 Legend Double Dagger 18.7 2.5 34 18 13 24.1 96.15     LegendNANA
18:00 Legend Double Dagger 16.7 1.6 36 20 10 24.1 96.09     Mostly Cloudy
19:00 Legend Double Dagger 14.9 1.0 39 19 11 24.1 96.02     LegendNANA
20:00 Legend Double Dagger 14.8 0.2 37 21 10 24.1 95.93     LegendNANA
21:00 Legend Double Dagger 12.5 1.3 46 18 4 24.1 95.85     Cloudy
22:00 Legend Double Dagger 12.0 2.1 50 14 10 24.1 95.74     LegendNANA
23:00 Legend Double Dagger 11.6 2.8 55 15 13 24.1 95.62     LegendNANA

Notes on Data Quality.

Legend

  • E = Estimated
  • M = Missing
  • NA = Not Available
  • ‡ = Partner data that is not subject to review by the National Climate Archives
Date modified: